EW7554 Weather Reports


Display with metric or nautical units.
time (UTC)temp
F
wind
direction
speed
MPH
gust
MPH
rain 1hr
in
rain 24hr
in
rain mn
in
humidity
%
barometer
mb
20260831053050 75 172 6.0 10.0 0.00 0.00 0.00 82 1007.7
20260831051555 75 145 5.0 8.0 0.00 0.00 0.00 81 1008.0
20260831050042 75 156 3.0 8.0 0.00 0.00 0.00 81 1008.3
20260831044540 75 172 3.0 7.0 0.00 0.00 0.00 81 1008.2
20260831043039 75 163 4.0 7.0 0.00 0.00 0.00 81 1008.3
20260831041539 75 177 1.0 9.0 0.00 0.00 0.00 81 1008.3
20260831040039 75 161 3.0 8.0 0.00 0.00 0.00 80 1008.3
20260831034546 75 182 5.0 7.0 0.00 0.00 0.00 80 1008.1
20260831033038 76 173 6.0 11.0 0.00 0.00 0.00 79 1008.2
20260831031538 76 149 6.0 9.0 0.00 0.00 0.00 78 1008.2
20260831030037 76 170 7.0 14.0 0.00 0.00 0.00 77 1007.9
20260831024539 77 168 5.0 10.0 0.00 0.00 0.00 76 1008.0
20260831023036 77 148 5.0 10.0 0.00 0.00 0.00 75 1008.1
20260831021539 78 178 8.0 16.0 0.00 0.00 0.00 74 1008.1
20260831020035 78 166 6.0 11.0 0.00 0.00 0.00 72 1008.2
20260831014534 79 153 5.0 10.0 0.00 0.00 0.00 71 1008.2
20260831013034 80 162 10.0 15.0 0.00 0.00 0.00 70 1008.2
20260831011543 80 164 10.0 20.0 0.00 0.00 0.00 68 1007.9
20260831010039 82 150 8.0 20.0 0.00 0.00 0.00 64 1007.7
20260831004532 83 172 12.0 18.0 0.00 0.00 0.00 62 1007.5
20260831003036 84 140 5.0 8.0 0.00 0.00 0.00 63 1007.5
20260831001531 84 164 5.0 11.0 0.00 0.00 0.00 61 1007.0
20260831000032 85 169 6.0 11.0 0.00 0.00 0.00 62 1007.0
20260830234538 86 172 7.0 12.0 0.00 0.00 0.00 63 1006.9
20260830233030 86 169 5.0 16.0 0.00 0.00 0.00 64 1007.0
20260830231530 86 155 8.0 16.0 0.00 0.00 0.00 63 1007.0
20260830230028 86 178 5.0 18.0 0.00 0.00 0.00 63 1007.1
20260830224528 87 153 2.0 5.0 0.00 0.00 0.00 65 1006.9
20260830223027 87 107 2.0 6.0 0.00 0.00 0.00 66 1006.8
20260830221540 86 86 3.0 8.0 0.00 0.00 0.00 66 1006.7
20260830220026 87 78 2.0 11.0 0.00 0.00 0.00 65 1007.0
20260830214523 86 146 1.0 7.0 0.00 0.00 0.00 66 1007.1
20260830213023 86 104 2.0 8.0 0.00 0.00 0.00 65 1007.1
20260830211521 85 82 3.0 14.0 0.00 0.00 0.00 67 1007.3
20260830210019 86 99 3.0 10.0 0.00 0.00 0.00 65 1007.5
20260830204518 85 157 3.0 9.0 0.00 0.00 0.00 66 1007.6
20260830203016 86 115 4.0 9.0 0.00 0.00 0.00 63 1007.8
20260830201514 86 106 3.0 10.0 0.00 0.00 0.00 65 1008.0
20260830200031 85 117 4.0 10.0 0.00 0.00 0.00 66 1007.9
20260830194512 85 175 5.0 12.0 0.00 0.00 0.00 65 1007.9
20260830193011 85 28 3.0 13.0 0.00 0.00 0.00 66 1008.0
20260830191508 85 56 4.0 10.0 0.00 0.00 0.00 66 1007.8
20260830190013 84 44 4.0 13.0 0.00 0.00 0.00 67 1008.0
20260830184619 83 174 4.0 13.0 0.00 0.00 0.00 68 1008.1
20260830184501 83 130 5.0 13.0 0.00 0.00 0.00 67 1008.1
20260830183111 82 153 4.0 10.0 0.00 0.00 0.00 69 1008.6
20260830181556 82 148 5.0 11.0 0.00 0.00 0.00 70 1008.6
20260830180057 81 130 6.0 10.0 0.00 0.00 0.00 71 1008.7
20260830174604 80 200 4.0 10.0 0.00 0.00 0.00 72 1008.8
20260830173047 79 84 2.0 9.0 0.00 0.00 0.00 75 1009.1
20260830171547 78 163 4.0 7.0 0.00 0.00 0.00 74 1009.4
20260830170045 79 146 3.0 9.0 0.00 0.00 0.00 74 1009.2
20260830164544 79 65 3.0 8.0 0.00 0.00 0.00 74 1009.2
20260830163041 77 183 2.0 15.0 0.00 0.00 0.00 76 1009.1
20260830161547 78 61 2.0 8.0 0.00 0.00 0.00 76 1008.6
20260830160042 77 199 1.0 11.0 0.00 0.00 0.00 77 1008.4
20260830154537 77 22 3.0 9.0 0.00 0.00 0.00 76 1008.4
20260830153034 76 91 3.0 11.0 0.00 0.00 0.00 77 1008.5
20260830151533 76 90 6.0 10.0 0.00 0.00 0.00 76 1008.5
20260830150031 76 108 4.0 8.0 0.00 0.00 0.00 77 1008.6
20260830144531 74 59 1.0 9.0 0.00 0.00 0.00 82 1008.5
20260830143022 73 32 2.0 8.0 0.00 0.00 0.00 83 1008.5
20260830141520 72 52 2.0 6.0 0.00 0.00 0.00 83 1008.6
20260830140022 72 40 2.0 5.0 0.00 0.00 0.00 84 1008.9
20260830134527 72 40 2.0 6.0 0.00 0.00 0.00 84 1009.2
20260830133019 71 83 2.0 7.0 0.00 0.00 0.00 86 1009.0
20260830131516 69 75 1.0 9.0 0.00 0.00 0.00 87 1008.7
20260830130015 69 63 3.0 7.0 0.00 0.00 0.00 88 1008.6
20260830124517 69 96 2.0 6.0 0.00 0.00 0.00 88 1008.6
20260830123009 69 63 2.0 5.0 0.00 0.00 0.00 88 1008.6
20260830121508 68 67 1.0 8.0 0.00 0.00 0.00 88 1008.5
20260830120003 68 74 2.0 5.0 0.00 0.00 0.00 88 1008.4
20260830114501 68 47 1.0 5.0 0.00 0.14 0.00 88 1008.4
20260830113106 68 39 2.0 5.0 0.00 0.14 0.00 88 1008.2
20260830111559 68 82 2.0 5.0 0.00 0.14 0.00 88 1008.3
20260830110059 68 61 2.0 6.0 0.00 0.14 0.00 88 1008.5
20260830104606 68 45 2.0 6.0 0.00 0.26 0.00 87 1008.7
20260830103056 68 71 2.0 5.0 0.00 0.26 0.00 87 1008.5
20260830101555 68 76 0.0 2.0 0.00 0.26 0.00 87 1008.8
20260830100054 69 76 0.0 3.0 0.00 0.26 0.00 87 1008.6
20260830094555 69 46 1.0 6.0 0.00 0.32 0.00 86 1008.4
20260830093050 69 41 1.0 5.0 0.00 0.32 0.00 86 1008.4
20260830091549 69 57 1.0 4.0 0.00 0.32 0.00 86 1008.4
20260830090046 69 71 1.0 4.0 0.00 0.32 0.00 86 1008.5
20260830084547 69 77 2.0 6.0 0.00 0.32 0.00 85 1008.5
20260830083057 69 59 1.0 4.0 0.00 0.32 0.00 85 1008.6
20260830081544 70 63 2.0 4.0 0.00 0.32 0.00 84 1008.7
20260830080042 70 19 2.0 5.0 0.00 0.32 0.00 84 1008.5
20260830074542 70 44 2.0 4.0 0.00 0.32 0.00 83 1008.6
20260830073040 70 70 1.0 3.0 0.00 0.32 0.00 83 1009.0
20260830071541 70 67 2.0 5.0 0.00 0.32 0.00 83 1008.8
20260830070037 70 66 1.0 3.0 0.00 0.32 0.00 83 1009.1
20260830064538 70 67 2.0 4.0 0.00 0.32 0.00 82 1009.0
20260830063034 71 49 2.0 5.0 0.00 0.32 0.00 82 1009.0
20260830061534 71 72 1.0 4.0 0.00 0.32 0.00 82 1009.1
20260830060030 71 79 0.0 3.0 0.00 0.32 0.00 81 1009.6
20260830054534 71 79 0.0 3.0 0.00 0.32 0.00 80 1009.6